Time,TemperatureF,DewpointF,PressureIn,WindDirection,WindDirectionDegrees,WindSpeedMPH,WindSpeedGustMPH,Humidity,HourlyPrecipIn,Conditions,Clouds,dailyrainin,SoftwareType,DateUTC
2013-05-02 00:04:00,75.3,64.4,29.80,North,0,0.0,0.0,69,0.00,,---,0.00,VWS V14.01,2013-05-02 05:04:00,
2013-05-02 00:09:00,75.1,64.2,29.80,North,0,0.0,0.0,69,0.00,,---,0.00,VWS V14.01,2013-05-02 05:09:00,
2013-05-02 00:14:00,74.9,64.1,29.79,North,0,0.0,0.0,69,0.00,,---,0.00,VWS V14.01,2013-05-02 05:14:00,
2013-05-02 00:19:00,74.7,63.9,29.79,North,0,0.0,0.0,69,0.00,,---,0.00,VWS V14.01,2013-05-02 05:19:00,
2013-05-02 00:24:00,74.6,64.2,29.79,North,0,0.0,0.0,70,0.00,,---,0.00,VWS V14.01,2013-05-02 05:24:00,
2013-05-02 00:29:00,74.4,64.0,29.79,North,0,0.0,0.0,70,0.00,,---,0.00,VWS V14.01,2013-05-02 05:29:00,
2013-05-02 00:34:00,74.0,63.6,29.79,North,0,0.0,0.0,70,0.00,,---,0.00,VWS V14.01,2013-05-02 05:34:00,
2013-05-02 00:39:00,73.9,63.5,29.79,North,0,0.0,0.0,70,0.00,,---,0.00,VWS V14.01,2013-05-02 05:39:00,
2013-05-02 00:44:00,73.7,63.3,29.81,North,0,0.0,0.0,70,0.00,,---,0.00,VWS V14.01,2013-05-02 05:44:00,
2013-05-02 00:49:00,73.7,63.3,29.81,North,0,0.0,0.0,70,0.00,,---,0.00,VWS V14.01,2013-05-02 05:49:00,
2013-05-02 00:54:00,73.5,63.5,29.81,North,0,0.0,0.0,71,0.00,,---,0.00,VWS V14.01,2013-05-02 05:54:00,
2013-05-02 00:59:00,73.3,63.3,29.80,North,0,0.0,0.0,71,0.00,,---,0.00,VWS V14.01,2013-05-02 05:59:00,
2013-05-02 01:04:00,73.2,63.6,29.80,North,0,0.0,0.0,72,0.00,,---,0.00,VWS V14.01,2013-05-02 06:04:00,
2013-05-02 01:09:00,73.0,63.5,29.80,North,0,0.0,0.0,72,0.00,,---,0.00,VWS V14.01,2013-05-02 06:09:00,
2013-05-02 01:14:00,73.0,63.5,29.79,North,0,0.0,0.0,72,0.00,,---,0.00,VWS V14.01,2013-05-02 06:14:00,
2013-05-02 01:19:00,72.8,63.3,29.79,North,0,0.0,0.0,72,0.00,,---,0.00,VWS V14.01,2013-05-02 06:19:00,
2013-05-02 01:24:00,72.8,63.3,29.79,North,0,0.0,0.0,72,0.00,,---,0.00,VWS V14.01,2013-05-02 06:24:00,
2013-05-02 01:29:00,73.0,63.5,29.83,North,0,0.0,0.0,72,0.00,,---,0.00,VWS V14.01,2013-05-02 06:29:00,
2013-05-02 01:34:00,73.0,63.0,29.83,North,0,0.0,0.0,71,0.00,,---,0.00,VWS V14.01,2013-05-02 06:34:00,
2013-05-02 01:39:00,73.2,63.2,29.83,North,0,0.0,0.0,71,0.00,,---,0.00,VWS V14.01,2013-05-02 06:39:00,
2013-05-02 01:44:00,73.0,57.8,29.86,North,0,0.0,0.0,59,0.00,,---,0.00,VWS V14.01,2013-05-02 06:44:00,
2013-05-02 01:49:00,72.3,56.2,29.86,North,0,0.0,0.0,57,0.00,,---,0.00,VWS V14.01,2013-05-02 06:49:00,
2013-05-02 01:54:00,71.5,56.4,29.86,North,0,0.0,0.0,59,0.00,,---,0.00,VWS V14.01,2013-05-02 06:54:00,
2013-05-02 01:59:00,70.1,59.1,29.86,North,0,0.0,0.0,68,0.02,,---,0.02,VWS V14.01,2013-05-02 06:59:00,
2013-05-02 02:04:00,67.3,59.5,29.86,North,0,0.0,0.0,76,0.10,,---,0.10,VWS V14.01,2013-05-02 07:04:00,
2013-05-02 02:09:00,65.3,59.7,29.86,North,0,0.0,0.0,82,0.10,,---,0.10,VWS V14.01,2013-05-02 07:09:00,
2013-05-02 02:14:00,64.3,59.4,29.84,North,0,0.0,0.0,84,0.10,,---,0.10,VWS V14.01,2013-05-02 07:14:00,
2013-05-02 02:19:00,63.9,59.6,29.84,North,0,0.0,0.0,86,0.10,,---,0.10,VWS V14.01,2013-05-02 07:19:00,
2013-05-02 02:24:00,63.7,59.8,29.84,North,0,0.0,0.0,87,0.10,,---,0.10,VWS V14.01,2013-05-02 07:24:00,
2013-05-02 02:29:00,63.4,59.5,29.81,North,0,0.0,0.0,87,0.10,,---,0.10,VWS V14.01,2013-05-02 07:29:00,
2013-05-02 02:34:00,63.2,59.6,29.81,North,0,0.0,0.0,88,0.10,,---,0.10,VWS V14.01,2013-05-02 07:34:00,
2013-05-02 02:39:00,63.1,59.5,29.81,North,0,0.0,0.0,88,0.10,,---,0.10,VWS V14.01,2013-05-02 07:39:00,
2013-05-02 02:44:00,63.1,59.8,29.84,North,0,0.0,0.0,89,0.10,,---,0.10,VWS V14.01,2013-05-02 07:44:00,
2013-05-02 02:49:00,63.1,59.8,29.84,North,0,0.0,0.0,89,0.10,,---,0.10,VWS V14.01,2013-05-02 07:49:00,
2013-05-02 02:54:00,62.9,59.6,29.84,North,0,0.0,0.0,89,0.10,,---,0.10,VWS V14.01,2013-05-02 07:54:00,
2013-05-02 02:59:00,62.7,59.7,29.84,North,0,0.0,0.0,90,0.10,,---,0.10,VWS V14.01,2013-05-02 07:59:00,
2013-05-02 03:04:00,62.4,59.4,29.84,North,0,0.0,0.0,90,0.04,,---,0.10,VWS V14.01,2013-05-02 08:04:00,
2013-05-02 03:09:00,62.3,59.3,29.84,North,0,0.0,0.0,90,0.04,,---,0.10,VWS V14.01,2013-05-02 08:09:00,
2013-05-02 03:14:00,62.1,59.1,29.82,North,0,0.0,0.0,90,0.04,,---,0.10,VWS V14.01,2013-05-02 08:14:00,
2013-05-02 03:19:00,62.1,59.1,29.82,North,0,0.0,0.0,90,0.04,,---,0.10,VWS V14.01,2013-05-02 08:19:00,
2013-05-02 03:24:00,62.0,59.0,29.82,North,0,0.0,0.0,90,0.04,,---,0.10,VWS V14.01,2013-05-02 08:24:00,
2013-05-02 03:29:00,62.0,59.0,29.81,North,0,0.0,0.0,90,0.04,,---,0.10,VWS V14.01,2013-05-02 08:29:00,
2013-05-02 03:34:00,62.0,59.0,29.81,North,0,0.0,0.0,90,0.04,,---,0.10,VWS V14.01,2013-05-02 08:34:00,
2013-05-02 03:39:00,62.0,59.0,29.81,North,0,0.0,0.0,90,0.04,,---,0.10,VWS V14.01,2013-05-02 08:39:00,
2013-05-02 03:44:00,62.1,59.1,29.79,North,0,0.0,0.0,90,0.04,,---,0.10,VWS V14.01,2013-05-02 08:44:00,
2013-05-02 03:49:00,62.1,59.1,29.79,North,0,0.0,0.0,90,0.04,,---,0.10,VWS V14.01,2013-05-02 08:49:00,
2013-05-02 03:54:00,62.1,59.1,29.79,North,0,0.0,0.0,90,0.04,,---,0.10,VWS V14.01,2013-05-02 08:54:00,
2013-05-02 03:59:00,62.3,59.3,29.79,North,0,0.0,0.0,90,0.04,,---,0.10,VWS V14.01,2013-05-02 08:59:00,
2013-05-02 04:04:00,62.4,59.4,29.79,North,0,0.0,0.0,90,0.00,,---,0.10,VWS V14.01,2013-05-02 09:04:00,
2013-05-02 04:09:00,62.4,59.4,29.79,North,0,0.0,0.0,90,0.00,,---,0.10,VWS V14.01,2013-05-02 09:09:00,
2013-05-02 04:14:00,62.4,59.4,29.82,North,0,0.0,0.0,90,0.00,,---,0.10,VWS V14.01,2013-05-02 09:14:00,
2013-05-02 04:19:00,62.4,59.4,29.82,North,0,0.0,0.0,90,0.00,,---,0.10,VWS V14.01,2013-05-02 09:19:00,
2013-05-02 04:24:00,62.4,59.4,29.82,North,0,0.0,0.0,90,0.00,,---,0.10,VWS V14.01,2013-05-02 09:24:00,
2013-05-02 04:29:00,62.4,59.7,29.81,North,0,0.0,0.0,91,0.00,,---,0.10,VWS V14.01,2013-05-02 09:29:00,
2013-05-02 04:34:00,62.4,59.7,29.81,North,0,0.0,0.0,91,0.00,,---,0.10,VWS V14.01,2013-05-02 09:34:00,
2013-05-02 04:39:00,62.4,59.7,29.81,North,0,0.0,0.0,91,0.00,,---,0.10,VWS V14.01,2013-05-02 09:39:00,
2013-05-02 04:44:00,62.4,59.7,29.81,North,0,0.0,0.0,91,0.00,,---,0.10,VWS V14.01,2013-05-02 09:44:00,
2013-05-02 04:49:00,62.3,59.6,29.81,North,0,0.0,0.0,91,0.00,,---,0.10,VWS V14.01,2013-05-02 09:49:00,
2013-05-02 04:54:00,62.3,59.6,29.81,North,0,0.0,0.0,91,0.00,,---,0.10,VWS V14.01,2013-05-02 09:54:00,
2013-05-02 04:59:00,62.1,59.5,29.80,North,0,0.0,0.0,91,0.00,,---,0.10,VWS V14.01,2013-05-02 09:59:00,
2013-05-02 05:04:00,62.1,59.5,29.80,North,0,0.0,0.0,91,0.00,,---,0.10,VWS V14.01,2013-05-02 10:04:00,
2013-05-02 05:09:00,62.1,59.5,29.80,North,0,0.0,0.0,91,0.00,,---,0.10,VWS V14.01,2013-05-02 10:09:00,
2013-05-02 05:14:00,62.0,59.3,29.80,North,0,0.0,0.0,91,0.00,,---,0.10,VWS V14.01,2013-05-02 10:14:00,
2013-05-02 05:19:00,62.0,59.3,29.80,North,0,0.0,0.0,91,0.00,,---,0.10,VWS V14.01,2013-05-02 10:19:00,
2013-05-02 05:24:00,62.0,59.3,29.80,North,0,0.0,0.0,91,0.00,,---,0.10,VWS V14.01,2013-05-02 10:24:00,
2013-05-02 05:29:00,61.8,59.2,29.79,North,0,0.0,0.0,91,0.00,,---,0.10,VWS V14.01,2013-05-02 10:29:00,
2013-05-02 05:34:00,61.8,59.2,29.79,North,0,0.0,0.0,91,0.00,,---,0.10,VWS V14.01,2013-05-02 10:34:00,
2013-05-02 05:39:00,61.8,59.2,29.79,North,0,0.0,0.0,91,0.00,,---,0.10,VWS V14.01,2013-05-02 10:39:00,
2013-05-02 05:44:00,61.8,59.2,29.80,North,0,0.0,0.0,91,0.00,,---,0.10,VWS V14.01,2013-05-02 10:44:00,
2013-05-02 05:49:00,61.8,59.2,29.80,North,0,0.0,0.0,91,0.00,,---,0.10,VWS V14.01,2013-05-02 10:49:00,
2013-05-02 05:54:00,62.0,59.3,29.80,North,0,0.0,0.0,91,0.00,,---,0.10,VWS V14.01,2013-05-02 10:54:00,
2013-05-02 05:59:00,62.1,59.5,29.81,North,0,0.0,0.0,91,0.00,,---,0.10,VWS V14.01,2013-05-02 10:59:00,
2013-05-02 06:04:00,62.1,59.5,29.81,North,0,0.0,0.0,91,0.00,,---,0.10,VWS V14.01,2013-05-02 11:04:00,
2013-05-02 06:09:00,62.3,59.6,29.81,North,0,0.0,0.0,91,0.00,,---,0.10,VWS V14.01,2013-05-02 11:09:00,
2013-05-02 06:14:00,62.4,59.7,29.83,North,0,0.0,0.0,91,0.00,,---,0.10,VWS V14.01,2013-05-02 11:14:00,
2013-05-02 06:19:00,62.6,59.9,29.83,North,0,0.0,0.0,91,0.00,,---,0.10,VWS V14.01,2013-05-02 11:19:00,
2013-05-02 06:24:00,62.6,59.9,29.83,North,0,0.0,0.0,91,0.00,,---,0.10,VWS V14.01,2013-05-02 11:24:00,
2013-05-02 06:29:00,62.7,60.0,29.83,North,0,0.0,0.0,91,0.00,,---,0.10,VWS V14.01,2013-05-02 11:29:00,
2013-05-02 06:34:00,62.9,60.2,29.83,North,0,0.0,0.0,91,0.00,,---,0.10,VWS V14.01,2013-05-02 11:34:00,
2013-05-02 06:39:00,63.1,60.4,29.83,North,0,0.0,0.0,91,0.00,,---,0.10,VWS V14.01,2013-05-02 11:39:00,
2013-05-02 06:44:00,63.2,60.2,29.84,North,0,0.0,0.0,90,0.00,,---,0.10,VWS V14.01,2013-05-02 11:44:00,
2013-05-02 06:49:00,63.4,60.4,29.84,North,0,0.0,0.0,90,0.00,,---,0.10,VWS V14.01,2013-05-02 11:49:00,
2013-05-02 06:54:00,63.4,60.4,29.84,North,0,0.0,0.0,90,0.00,,---,0.10,VWS V14.01,2013-05-02 11:54:00,
2013-05-02 06:59:00,63.7,60.7,29.86,North,0,0.0,0.0,90,0.00,,---,0.10,VWS V14.01,2013-05-02 11:59:00,
2013-05-02 07:04:00,63.7,60.7,29.86,North,0,0.0,0.0,90,0.00,,---,0.10,VWS V14.01,2013-05-02 12:04:00,
2013-05-02 07:09:00,63.9,60.9,29.86,North,0,0.0,0.0,90,0.00,,---,0.10,VWS V14.01,2013-05-02 12:09:00,
2013-05-02 07:14:00,63.9,60.6,29.88,North,0,0.0,0.0,89,0.00,,---,0.10,VWS V14.01,2013-05-02 12:14:00,
2013-05-02 07:19:00,63.4,59.2,29.88,North,0,0.0,0.0,86,0.00,,---,0.10,VWS V14.01,2013-05-02 12:19:00,
2013-05-02 07:24:00,62.6,57.4,29.88,North,0,0.0,0.0,83,0.00,,---,0.10,VWS V14.01,2013-05-02 12:24:00,
2013-05-02 07:29:00,62.1,56.2,29.90,North,0,0.0,0.0,81,0.00,,---,0.10,VWS V14.01,2013-05-02 12:29:00,
2013-05-02 07:34:00,61.6,55.4,29.90,North,0,0.0,0.0,80,0.00,,---,0.10,VWS V14.01,2013-05-02 12:34:00,
2013-05-02 07:39:00,61.2,54.6,29.90,North,0,0.0,0.0,79,0.00,,---,0.10,VWS V14.01,2013-05-02 12:39:00,
2013-05-02 07:44:00,60.4,52.8,29.92,North,0,0.0,0.0,76,0.00,,---,0.10,VWS V14.01,2013-05-02 12:44:00,
2013-05-02 07:49:00,59.6,52.0,29.92,North,0,0.0,0.0,76,0.02,,---,0.12,VWS V14.01,2013-05-02 12:49:00,
2013-05-02 07:55:00,59.0,51.1,29.92,North,0,0.0,0.0,75,0.02,,---,0.12,VWS V14.01,2013-05-02 12:55:00,
2013-05-02 08:00:00,58.6,51.1,29.93,North,0,0.0,0.0,76,0.02,,---,0.12,VWS V14.01,2013-05-02 13:00:00,
2013-05-02 08:05:00,58.1,50.2,29.93,North,0,0.0,0.0,75,0.02,,---,0.12,VWS V14.01,2013-05-02 13:05:00,
2013-05-02 08:10:00,57.5,49.7,29.93,North,0,0.0,0.0,75,0.02,,---,0.12,VWS V14.01,2013-05-02 13:10:00,
2013-05-02 08:15:00,57.0,49.2,29.95,North,0,0.0,0.0,75,0.02,,---,0.12,VWS V14.01,2013-05-02 13:15:00,
2013-05-02 08:20:00,56.7,48.9,29.95,North,0,0.0,0.0,75,0.02,,---,0.12,VWS V14.01,2013-05-02 13:20:00,
2013-05-02 08:25:00,56.7,49.2,29.95,North,0,0.0,0.0,76,0.02,,---,0.12,VWS V14.01,2013-05-02 13:25:00,
2013-05-02 08:30:00,56.6,49.1,29.95,North,0,0.0,0.0,76,0.02,,---,0.12,VWS V14.01,2013-05-02 13:30:00,
2013-05-02 08:35:00,56.6,49.1,29.95,North,0,0.0,0.0,76,0.02,,---,0.12,VWS V14.01,2013-05-02 13:35:00,
2013-05-02 08:40:00,56.5,48.7,29.95,North,0,0.0,0.0,75,0.02,,---,0.12,VWS V14.01,2013-05-02 13:40:00,
2013-05-02 08:45:00,56.3,48.5,29.96,North,0,0.0,0.0,75,0.02,,---,0.12,VWS V14.01,2013-05-02 13:45:00,
2013-05-02 08:50:00,56.0,48.2,29.96,North,0,0.0,0.0,75,0.02,,---,0.12,VWS V14.01,2013-05-02 13:50:00,
2013-05-02 08:55:00,55.7,47.9,29.96,North,0,0.0,0.0,75,0.02,,---,0.12,VWS V14.01,2013-05-02 13:55:00,
2013-05-02 09:00:00,55.6,47.8,29.97,North,0,0.0,0.0,75,0.02,,---,0.12,VWS V14.01,2013-05-02 14:00:00,
2013-05-02 09:05:00,55.4,48.0,29.97,North,0,0.0,0.0,76,0.00,,---,0.12,VWS V14.01,2013-05-02 14:05:00,
2013-05-02 09:10:00,55.3,47.5,29.97,North,0,0.0,0.0,75,0.00,,---,0.12,VWS V14.01,2013-05-02 14:10:00,
2013-05-02 09:15:00,55.1,47.3,29.98,North,0,0.0,0.0,75,0.00,,---,0.12,VWS V14.01,2013-05-02 14:15:00,
2013-05-02 09:20:00,54.8,47.0,29.98,North,0,0.0,0.0,75,0.00,,---,0.12,VWS V14.01,2013-05-02 14:20:00,
2013-05-02 09:25:00,54.5,46.4,29.98,North,0,0.0,0.0,74,0.00,,---,0.12,VWS V14.01,2013-05-02 14:25:00,
2013-05-02 09:30:00,54.4,46.7,29.99,North,0,0.0,0.0,75,0.00,,---,0.12,VWS V14.01,2013-05-02 14:30:00,
2013-05-02 09:35:00,54.2,46.5,29.99,North,0,0.0,0.0,75,0.00,,---,0.12,VWS V14.01,2013-05-02 14:35:00,
2013-05-02 09:40:00,54.1,46.4,29.99,North,0,0.0,0.0,75,0.00,,---,0.12,VWS V14.01,2013-05-02 14:40:00,
2013-05-02 09:45:00,53.8,46.1,30.01,North,0,0.0,0.0,75,0.00,,---,0.12,VWS V14.01,2013-05-02 14:45:00,
2013-05-02 09:50:00,53.6,45.9,30.01,North,0,0.0,0.0,75,0.00,,---,0.12,VWS V14.01,2013-05-02 14:50:00,
2013-05-02 09:55:00,53.5,45.8,30.01,North,0,0.0,0.0,75,0.00,,---,0.12,VWS V14.01,2013-05-02 14:55:00,
2013-05-02 10:00:00,53.1,45.4,30.03,North,0,0.0,0.0,75,0.00,,---,0.12,VWS V14.01,2013-05-02 15:00:00,
2013-05-02 10:05:00,52.8,45.5,30.03,North,0,0.0,0.0,76,0.00,,---,0.12,VWS V14.01,2013-05-02 15:05:00,
2013-05-02 10:10:00,52.6,45.3,30.03,North,0,0.0,0.0,76,0.00,,---,0.12,VWS V14.01,2013-05-02 15:10:00,
2013-05-02 10:15:00,52.5,45.2,30.03,North,0,0.0,0.0,76,0.00,,---,0.12,VWS V14.01,2013-05-02 15:15:00,
2013-05-02 10:20:00,52.5,45.5,30.03,North,0,0.0,0.0,77,0.00,,---,0.12,VWS V14.01,2013-05-02 15:20:00,
2013-05-02 10:25:00,52.3,45.3,30.03,North,0,0.0,0.0,77,0.00,,---,0.12,VWS V14.01,2013-05-02 15:25:00,
2013-05-02 10:30:00,52.0,45.0,30.05,North,0,0.0,0.0,77,0.00,,---,0.12,VWS V14.01,2013-05-02 15:30:00,
2013-05-02 10:35:00,51.9,44.9,30.05,North,0,0.0,0.0,77,0.00,,---,0.12,VWS V14.01,2013-05-02 15:35:00,
2013-05-02 10:40:00,51.7,44.7,30.05,North,0,0.0,0.0,77,0.00,,---,0.12,VWS V14.01,2013-05-02 15:40:00,
2013-05-02 10:45:00,51.7,44.4,30.07,North,0,0.0,0.0,76,0.00,,---,0.12,VWS V14.01,2013-05-02 15:45:00,
2013-05-02 10:50:00,51.7,44.0,30.07,North,0,0.0,0.0,75,0.00,,---,0.12,VWS V14.01,2013-05-02 15:50:00,
2013-05-02 10:55:00,51.7,44.0,30.07,North,0,0.0,0.0,75,0.00,,---,0.12,VWS V14.01,2013-05-02 15:55:00,
2013-05-02 11:00:00,51.7,43.7,30.09,North,0,0.0,0.0,74,0.00,,---,0.12,VWS V14.01,2013-05-02 16:00:00,
2013-05-02 11:05:00,51.6,43.6,30.09,North,0,0.0,0.0,74,0.00,,---,0.12,VWS V14.01,2013-05-02 16:05:00,
2013-05-02 11:10:00,51.4,43.4,30.09,North,0,0.0,0.0,74,0.00,,---,0.12,VWS V14.01,2013-05-02 16:10:00,
2013-05-02 11:15:00,51.3,43.0,30.10,North,0,0.0,0.0,73,0.00,,---,0.12,VWS V14.01,2013-05-02 16:15:00,
2013-05-02 11:20:00,51.1,42.8,30.10,North,0,0.0,0.0,73,0.00,,---,0.12,VWS V14.01,2013-05-02 16:20:00,
2013-05-02 11:25:00,51.0,43.0,30.10,North,0,0.0,0.0,74,0.00,,---,0.12,VWS V14.01,2013-05-02 16:25:00,
2013-05-02 11:30:00,51.1,43.1,30.12,North,0,0.0,0.0,74,0.00,,---,0.12,VWS V14.01,2013-05-02 16:30:00,
2013-05-02 11:35:00,51.1,42.8,30.12,North,0,0.0,0.0,73,0.00,,---,0.12,VWS V14.01,2013-05-02 16:35:00,
2013-05-02 11:40:00,51.1,42.8,30.12,North,0,0.0,0.0,73,0.00,,---,0.12,VWS V14.01,2013-05-02 16:40:00,
2013-05-02 11:45:00,51.3,43.0,30.13,North,0,0.0,0.0,73,0.00,,---,0.12,VWS V14.01,2013-05-02 16:45:00,
2013-05-02 11:50:00,51.3,43.0,30.13,North,0,0.0,0.0,73,0.00,,---,0.12,VWS V14.01,2013-05-02 16:50:00,
2013-05-02 11:55:00,51.3,43.3,30.13,North,0,0.0,0.0,74,0.00,,---,0.12,VWS V14.01,2013-05-02 16:55:00,
2013-05-02 12:00:00,51.1,43.1,30.14,North,0,0.0,0.0,74,0.00,,---,0.12,VWS V14.01,2013-05-02 17:00:00,
2013-05-02 12:05:00,50.8,42.8,30.14,North,0,0.0,0.0,74,0.00,,---,0.12,VWS V14.01,2013-05-02 17:05:00,
2013-05-02 12:10:00,50.8,43.2,30.14,North,0,0.0,0.0,75,0.00,,---,0.12,VWS V14.01,2013-05-02 17:10:00,
2013-05-02 12:15:00,50.8,42.8,30.15,North,0,0.0,0.0,74,0.00,,---,0.12,VWS V14.01,2013-05-02 17:15:00,
2013-05-02 12:20:00,50.7,42.7,30.15,North,0,0.0,0.0,74,0.00,,---,0.12,VWS V14.01,2013-05-02 17:20:00,
2013-05-02 12:25:00,50.7,42.7,30.15,North,0,0.0,0.0,74,0.00,,---,0.12,VWS V14.01,2013-05-02 17:25:00,
2013-05-02 12:30:00,50.5,42.5,30.15,North,0,0.0,0.0,74,0.00,,---,0.12,VWS V14.01,2013-05-02 17:30:00,
2013-05-02 12:35:00,50.4,42.8,30.15,North,0,0.0,0.0,75,0.00,,---,0.12,VWS V14.01,2013-05-02 17:35:00,
2013-05-02 12:40:00,50.5,42.9,30.15,North,0,0.0,0.0,75,0.00,,---,0.12,VWS V14.01,2013-05-02 17:40:00,
2013-05-02 12:45:00,50.7,43.1,30.14,North,0,0.0,0.0,75,0.00,,---,0.12,VWS V14.01,2013-05-02 17:45:00,
2013-05-02 12:50:00,51.0,43.0,30.14,North,0,0.0,0.0,74,0.00,,---,0.12,VWS V14.01,2013-05-02 17:50:00,
2013-05-02 12:55:00,51.1,42.8,30.14,North,0,0.0,0.0,73,0.00,,---,0.12,VWS V14.01,2013-05-02 17:55:00,
2013-05-02 13:00:00,51.3,43.0,30.13,North,0,0.0,0.0,73,0.00,,---,0.12,VWS V14.01,2013-05-02 18:00:00,
2013-05-02 13:05:00,51.7,43.3,30.13,North,0,0.0,0.0,73,0.00,,---,0.12,VWS V14.01,2013-05-02 18:05:00,
2013-05-02 13:10:00,52.0,43.3,30.13,North,0,0.0,0.0,72,0.00,,---,0.12,VWS V14.01,2013-05-02 18:10:00,
2013-05-02 13:15:00,52.5,43.4,30.12,North,0,0.0,0.0,71,0.00,,---,0.12,VWS V14.01,2013-05-02 18:15:00,
2013-05-02 13:20:00,52.9,43.4,30.12,North,0,0.0,0.0,70,0.00,,---,0.12,VWS V14.01,2013-05-02 18:20:00,
2013-05-02 13:25:00,53.6,44.1,30.12,North,0,0.0,0.0,70,0.00,,---,0.12,VWS V14.01,2013-05-02 18:25:00,
2013-05-02 13:30:00,54.4,44.1,30.12,North,0,0.0,0.0,68,0.00,,---,0.12,VWS V14.01,2013-05-02 18:30:00,
2013-05-02 13:35:00,54.8,43.7,30.12,North,0,0.0,0.0,66,0.00,,---,0.12,VWS V14.01,2013-05-02 18:35:00,
2013-05-02 13:40:00,55.3,44.5,30.12,North,0,0.0,0.0,67,0.00,,---,0.12,VWS V14.01,2013-05-02 18:40:00,
2013-05-02 13:45:00,56.2,45.0,30.12,North,0,0.0,0.0,66,0.00,,---,0.12,VWS V14.01,2013-05-02 18:45:00,
2013-05-02 13:50:00,56.9,44.5,30.12,North,0,0.0,0.0,63,0.00,,---,0.12,VWS V14.01,2013-05-02 18:50:00,
2013-05-02 13:55:00,57.2,44.3,30.12,North,0,0.0,0.0,62,0.00,,---,0.12,VWS V14.01,2013-05-02 18:55:00,
2013-05-02 14:00:00,57.2,44.7,30.12,North,0,0.0,0.0,63,0.00,,---,0.12,VWS V14.01,2013-05-02 19:00:00,
2013-05-02 14:05:00,57.8,44.5,30.12,North,0,0.0,0.0,61,0.00,,---,0.12,VWS V14.01,2013-05-02 19:05:00,
2013-05-02 14:10:00,57.2,43.5,30.12,North,0,0.0,0.0,60,0.00,,---,0.12,VWS V14.01,2013-05-02 19:10:00,
2013-05-02 14:15:00,56.5,43.2,30.13,North,0,0.0,0.0,61,0.00,,---,0.12,VWS V14.01,2013-05-02 19:15:00,
2013-05-02 14:20:00,56.0,44.0,30.13,North,0,0.0,0.0,64,0.00,,---,0.12,VWS V14.01,2013-05-02 19:20:00,
2013-05-02 14:25:00,55.9,43.9,30.13,North,0,0.0,0.0,64,0.00,,---,0.12,VWS V14.01,2013-05-02 19:25:00,
2013-05-02 14:30:00,55.7,43.7,30.13,North,0,0.0,0.0,64,0.00,,---,0.12,VWS V14.01,2013-05-02 19:30:00,
2013-05-02 14:35:00,55.7,43.7,30.13,North,0,0.0,0.0,64,0.00,,---,0.12,VWS V14.01,2013-05-02 19:35:00,
2013-05-02 14:40:00,55.7,43.7,30.13,North,0,0.0,0.0,64,0.00,,---,0.12,VWS V14.01,2013-05-02 19:40:00,
2013-05-02 14:45:00,55.6,43.2,30.13,North,0,0.0,0.0,63,0.00,,---,0.12,VWS V14.01,2013-05-02 19:45:00,
2013-05-02 14:50:00,55.3,43.3,30.13,North,0,0.0,0.0,64,0.00,,---,0.12,VWS V14.01,2013-05-02 19:50:00,
2013-05-02 14:55:00,54.7,43.2,30.13,North,0,0.0,0.0,65,0.00,,---,0.12,VWS V14.01,2013-05-02 19:55:00,
2013-05-02 15:00:00,54.5,43.0,30.14,North,0,0.0,0.0,65,0.00,,---,0.12,VWS V14.01,2013-05-02 20:00:00,
2013-05-02 15:05:00,54.1,43.4,30.14,North,0,0.0,0.0,67,0.00,,---,0.12,VWS V14.01,2013-05-02 20:05:00,
2013-05-02 15:10:00,53.9,42.8,30.14,North,0,0.0,0.0,66,0.00,,---,0.12,VWS V14.01,2013-05-02 20:10:00,
2013-05-02 15:15:00,53.5,42.8,30.13,North,0,0.0,0.0,67,0.00,,---,0.12,VWS V14.01,2013-05-02 20:15:00,
2013-05-02 15:20:00,53.2,42.9,30.13,North,0,0.0,0.0,68,0.00,,---,0.12,VWS V14.01,2013-05-02 20:20:00,
2013-05-02 15:25:00,53.1,42.5,30.13,North,0,0.0,0.0,67,0.00,,---,0.12,VWS V14.01,2013-05-02 20:25:00,
2013-05-02 15:30:00,53.1,42.5,30.13,North,0,0.0,0.0,67,0.00,,---,0.12,VWS V14.01,2013-05-02 20:30:00,
2013-05-02 15:35:00,53.2,42.9,30.13,North,0,0.0,0.0,68,0.00,,---,0.12,VWS V14.01,2013-05-02 20:35:00,
2013-05-02 15:40:00,53.1,42.1,30.13,North,0,0.0,0.0,66,0.00,,---,0.12,VWS V14.01,2013-05-02 20:40:00,
2013-05-02 15:46:00,52.9,41.9,30.13,North,0,0.0,0.0,66,0.00,,---,0.12,VWS V14.01,2013-05-02 20:46:00,
2013-05-02 15:51:00,53.1,42.1,30.13,North,0,0.0,0.0,66,0.00,,---,0.12,VWS V14.01,2013-05-02 20:51:00,
2013-05-02 15:56:00,53.3,41.8,30.13,North,0,0.0,0.0,65,0.00,,---,0.12,VWS V14.01,2013-05-02 20:56:00,
2013-05-02 16:01:00,53.3,41.8,30.12,North,0,0.0,0.0,65,0.00,,---,0.12,VWS V14.01,2013-05-02 21:01:00,
2013-05-02 16:06:00,53.2,41.8,30.12,North,0,0.0,0.0,65,0.00,,---,0.12,VWS V14.01,2013-05-02 21:06:00,
2013-05-02 16:11:00,52.9,41.9,30.12,North,0,0.0,0.0,66,0.00,,---,0.12,VWS V14.01,2013-05-02 21:11:00,
2013-05-02 16:16:00,52.8,41.8,30.13,North,0,0.0,0.0,66,0.00,,---,0.12,VWS V14.01,2013-05-02 21:16:00,
2013-05-02 16:21:00,52.8,41.8,30.13,North,0,0.0,0.0,66,0.00,,---,0.12,VWS V14.01,2013-05-02 21:21:00,
2013-05-02 16:26:00,52.6,40.8,30.13,North,0,0.0,0.0,64,0.00,,---,0.12,VWS V14.01,2013-05-02 21:26:00,
2013-05-02 16:31:00,52.5,41.1,30.14,North,0,0.0,0.0,65,0.00,,---,0.12,VWS V14.01,2013-05-02 21:31:00,
2013-05-02 16:36:00,52.2,41.2,30.14,North,0,0.0,0.0,66,0.00,,---,0.12,VWS V14.01,2013-05-02 21:36:00,
2013-05-02 16:41:00,52.0,41.4,30.14,North,0,0.0,0.0,67,0.00,,---,0.12,VWS V14.01,2013-05-02 21:41:00,
2013-05-02 16:46:00,51.9,40.9,30.14,North,0,0.0,0.0,66,0.00,,---,0.12,VWS V14.01,2013-05-02 21:46:00,
2013-05-02 16:51:00,51.4,41.2,30.14,North,0,0.0,0.0,68,0.00,,---,0.12,VWS V14.01,2013-05-02 21:51:00,
2013-05-02 16:56:00,51.1,40.9,30.14,North,0,0.0,0.0,68,0.00,,---,0.12,VWS V14.01,2013-05-02 21:56:00,
2013-05-02 17:01:00,51.0,41.2,30.14,North,0,0.0,0.0,69,0.00,,---,0.12,VWS V14.01,2013-05-02 22:01:00,
2013-05-02 17:06:00,50.7,40.9,30.14,North,0,0.0,0.0,69,0.00,,---,0.12,VWS V14.01,2013-05-02 22:06:00,
2013-05-02 17:11:00,50.4,40.6,30.14,North,0,0.0,0.0,69,0.00,,---,0.12,VWS V14.01,2013-05-02 22:11:00,
2013-05-02 17:16:00,50.4,40.6,30.14,North,0,0.0,0.0,69,0.00,,---,0.12,VWS V14.01,2013-05-02 22:16:00,
2013-05-02 17:21:00,50.4,40.6,30.14,North,0,0.0,0.0,69,0.00,,---,0.12,VWS V14.01,2013-05-02 22:21:00,
2013-05-02 17:26:00,50.2,40.1,30.14,North,0,0.0,0.0,68,0.00,,---,0.12,VWS V14.01,2013-05-02 22:26:00,
2013-05-02 17:31:00,50.1,40.0,30.14,North,0,0.0,0.0,68,0.00,,---,0.12,VWS V14.01,2013-05-02 22:31:00,
2013-05-02 17:36:00,50.1,40.0,30.14,North,0,0.0,0.0,68,0.00,,---,0.12,VWS V14.01,2013-05-02 22:36:00,
2013-05-02 17:41:00,50.1,40.3,30.14,North,0,0.0,0.0,69,0.00,,---,0.12,VWS V14.01,2013-05-02 22:41:00,
2013-05-02 17:46:00,49.9,39.8,30.14,North,0,0.0,0.0,68,0.00,,---,0.12,VWS V14.01,2013-05-02 22:46:00,
2013-05-02 17:51:00,49.8,39.7,30.14,North,0,0.0,0.0,68,0.00,,---,0.12,VWS V14.01,2013-05-02 22:51:00,
2013-05-02 17:56:00,49.8,40.0,30.14,North,0,0.0,0.0,69,0.00,,---,0.12,VWS V14.01,2013-05-02 22:56:00,
2013-05-02 18:01:00,49.8,40.4,30.15,North,0,0.0,0.0,70,0.00,,---,0.12,VWS V14.01,2013-05-02 23:01:00,
2013-05-02 18:06:00,49.8,40.4,30.15,North,0,0.0,0.0,70,0.00,,---,0.12,VWS V14.01,2013-05-02 23:06:00,
2013-05-02 18:11:00,49.6,39.9,30.15,North,0,0.0,0.0,69,0.00,,---,0.12,VWS V14.01,2013-05-02 23:11:00,
2013-05-02 18:16:00,49.6,39.9,30.15,North,0,0.0,0.0,69,0.00,,---,0.12,VWS V14.01,2013-05-02 23:16:00,
2013-05-02 18:21:00,49.5,39.8,30.15,North,0,0.0,0.0,69,0.00,,---,0.12,VWS V14.01,2013-05-02 23:21:00,
2013-05-02 18:26:00,49.4,39.7,30.15,North,0,0.0,0.0,69,0.00,,---,0.12,VWS V14.01,2013-05-02 23:26:00,
2013-05-02 18:31:00,49.4,39.3,30.15,North,0,0.0,0.0,68,0.00,,---,0.12,VWS V14.01,2013-05-02 23:31:00,
2013-05-02 18:36:00,49.2,39.1,30.15,North,0,0.0,0.0,68,0.00,,---,0.12,VWS V14.01,2013-05-02 23:36:00,
2013-05-02 18:41:00,49.1,39.4,30.15,North,0,0.0,0.0,69,0.00,,---,0.12,VWS V14.01,2013-05-02 23:41:00,
2013-05-02 18:46:00,48.9,39.2,30.16,North,0,0.0,0.0,69,0.00,,---,0.12,VWS V14.01,2013-05-02 23:46:00,
2013-05-02 18:51:00,48.8,39.5,30.16,North,0,0.0,0.0,70,0.00,,---,0.12,VWS V14.01,2013-05-02 23:51:00,
2013-05-02 18:56:00,48.6,39.3,30.16,North,0,0.0,0.0,70,0.00,,---,0.12,VWS V14.01,2013-05-02 23:56:00,
2013-05-02 19:01:00,48.5,38.8,30.17,North,0,0.0,0.0,69,0.00,,---,0.12,VWS V14.01,2013-05-03 00:01:00,
2013-05-02 19:06:00,48.3,38.6,30.17,North,0,0.0,0.0,69,0.00,,---,0.12,VWS V14.01,2013-05-03 00:06:00,
2013-05-02 19:11:00,48.2,38.2,30.17,North,0,0.0,0.0,68,0.00,,---,0.12,VWS V14.01,2013-05-03 00:11:00,
2013-05-02 19:16:00,48.0,38.0,30.18,North,0,0.0,0.0,68,0.00,,---,0.12,VWS V14.01,2013-05-03 00:16:00,
2013-05-02 19:21:00,47.9,38.2,30.18,North,0,0.0,0.0,69,0.00,,---,0.12,VWS V14.01,2013-05-03 00:21:00,
2013-05-02 19:26:00,47.7,38.4,30.18,North,0,0.0,0.0,70,0.00,,---,0.12,VWS V14.01,2013-05-03 00:26:00,
2013-05-02 19:31:00,47.6,38.7,30.17,North,0,0.0,0.0,71,0.00,,---,0.12,VWS V14.01,2013-05-03 00:31:00,
2013-05-02 19:36:00,47.4,38.5,30.17,North,0,0.0,0.0,71,0.00,,---,0.12,VWS V14.01,2013-05-03 00:36:00,
2013-05-02 19:41:00,47.4,38.5,30.17,North,0,0.0,0.0,71,0.00,,---,0.12,VWS V14.01,2013-05-03 00:41:00,
2013-05-02 19:46:00,47.4,38.5,30.18,North,0,0.0,0.0,71,0.00,,---,0.12,VWS V14.01,2013-05-03 00:46:00,
2013-05-02 19:51:00,47.4,38.5,30.18,North,0,0.0,0.0,71,0.00,,---,0.12,VWS V14.01,2013-05-03 00:51:00,
2013-05-02 19:56:00,47.4,38.1,30.18,North,0,0.0,0.0,70,0.00,,---,0.12,VWS V14.01,2013-05-03 00:56:00,
2013-05-02 20:01:00,47.4,38.1,30.18,North,0,0.0,0.0,70,0.00,,---,0.12,VWS V14.01,2013-05-03 01:01:00,
2013-05-02 20:06:00,47.4,38.1,30.18,North,0,0.0,0.0,70,0.00,,---,0.12,VWS V14.01,2013-05-03 01:06:00,
2013-05-02 20:11:00,47.4,37.8,30.18,North,0,0.0,0.0,69,0.00,,---,0.12,VWS V14.01,2013-05-03 01:11:00,
2013-05-02 20:16:00,47.6,38.0,30.20,North,0,0.0,0.0,69,0.00,,---,0.12,VWS V14.01,2013-05-03 01:16:00,
2013-05-02 20:21:00,47.6,38.0,30.20,North,0,0.0,0.0,69,0.00,,---,0.12,VWS V14.01,2013-05-03 01:21:00,
2013-05-02 20:26:00,47.6,37.6,30.20,North,0,0.0,0.0,68,0.00,,---,0.12,VWS V14.01,2013-05-03 01:26:00,
2013-05-02 20:31:00,47.7,37.7,30.20,North,0,0.0,0.0,68,0.00,,---,0.12,VWS V14.01,2013-05-03 01:31:00,
2013-05-02 20:36:00,47.7,37.3,30.20,North,0,0.0,0.0,67,0.00,,---,0.12,VWS V14.01,2013-05-03 01:36:00,
2013-05-02 20:41:00,47.7,36.9,30.20,North,0,0.0,0.0,66,0.00,,---,0.12,VWS V14.01,2013-05-03 01:41:00,
2013-05-02 20:46:00,47.7,36.9,30.21,North,0,0.0,0.0,66,0.00,,---,0.12,VWS V14.01,2013-05-03 01:46:00,
2013-05-02 20:51:00,47.9,36.7,30.21,North,0,0.0,0.0,65,0.00,,---,0.12,VWS V14.01,2013-05-03 01:51:00,
2013-05-02 20:56:00,47.9,37.1,30.21,North,0,0.0,0.0,66,0.00,,---,0.12,VWS V14.01,2013-05-03 01:56:00,
2013-05-02 21:01:00,47.9,36.7,30.21,North,0,0.0,0.0,65,0.00,,---,0.12,VWS V14.01,2013-05-03 02:01:00,
2013-05-02 21:06:00,47.9,36.7,30.21,North,0,0.0,0.0,65,0.00,,---,0.12,VWS V14.01,2013-05-03 02:06:00,
2013-05-02 21:11:00,47.9,36.7,30.21,North,0,0.0,0.0,65,0.00,,---,0.12,VWS V14.01,2013-05-03 02:11:00,
2013-05-02 21:16:00,47.9,36.3,30.22,North,0,0.0,0.0,64,0.00,,---,0.12,VWS V14.01,2013-05-03 02:16:00,
2013-05-02 21:21:00,48.0,36.8,30.22,North,0,0.0,0.0,65,0.00,,---,0.12,VWS V14.01,2013-05-03 02:21:00,
2013-05-02 21:26:00,48.0,36.8,30.22,North,0,0.0,0.0,65,0.00,,---,0.12,VWS V14.01,2013-05-03 02:26:00,
2013-05-02 21:31:00,48.0,36.4,30.23,North,0,0.0,0.0,64,0.00,,---,0.12,VWS V14.01,2013-05-03 02:31:00,
2013-05-02 21:36:00,48.0,36.8,30.23,North,0,0.0,0.0,65,0.00,,---,0.12,VWS V14.01,2013-05-03 02:36:00,
2013-05-02 21:41:00,48.0,36.4,30.23,North,0,0.0,0.0,64,0.00,,---,0.12,VWS V14.01,2013-05-03 02:41:00,
2013-05-02 21:46:00,48.2,36.6,30.23,North,0,0.0,0.0,64,0.00,,---,0.12,VWS V14.01,2013-05-03 02:46:00,
2013-05-02 21:51:00,48.2,36.6,30.23,North,0,0.0,0.0,64,0.00,,---,0.12,VWS V14.01,2013-05-03 02:51:00,
2013-05-02 21:56:00,48.3,36.7,30.23,North,0,0.0,0.0,64,0.00,,---,0.12,VWS V14.01,2013-05-03 02:56:00,
2013-05-02 22:01:00,48.3,36.3,30.23,North,0,0.0,0.0,63,0.00,,---,0.12,VWS V14.01,2013-05-03 03:01:00,
2013-05-02 22:06:00,48.5,36.5,30.23,North,0,0.0,0.0,63,0.00,,---,0.12,VWS V14.01,2013-05-03 03:06:00,
2013-05-02 22:11:00,48.5,36.5,30.23,North,0,0.0,0.0,63,0.00,,---,0.12,VWS V14.01,2013-05-03 03:11:00,
2013-05-02 22:16:00,48.6,36.2,30.23,North,0,0.0,0.0,62,0.00,,---,0.12,VWS V14.01,2013-05-03 03:16:00,
2013-05-02 22:21:00,48.8,36.0,30.23,North,0,0.0,0.0,61,0.00,,---,0.12,VWS V14.01,2013-05-03 03:21:00,
2013-05-02 22:26:00,48.9,36.1,30.23,North,0,0.0,0.0,61,0.00,,---,0.12,VWS V14.01,2013-05-03 03:26:00,
2013-05-02 22:31:00,49.1,36.2,30.22,North,0,0.0,0.0,61,0.00,,---,0.12,VWS V14.01,2013-05-03 03:31:00,
2013-05-02 22:36:00,49.1,35.8,30.22,North,0,0.0,0.0,60,0.00,,---,0.12,VWS V14.01,2013-05-03 03:36:00,
2013-05-02 22:41:00,49.2,35.1,30.22,North,0,0.0,0.0,58,0.00,,---,0.12,VWS V14.01,2013-05-03 03:41:00,
2013-05-02 22:46:00,49.4,35.7,30.23,North,0,0.0,0.0,59,0.00,,---,0.12,VWS V14.01,2013-05-03 03:46:00,
2013-05-02 22:51:00,49.4,35.3,30.23,North,0,0.0,0.0,58,0.00,,---,0.12,VWS V14.01,2013-05-03 03:51:00,
2013-05-02 22:56:00,49.5,35.3,30.23,North,0,0.0,0.0,58,0.00,,---,0.12,VWS V14.01,2013-05-03 03:56:00,
2013-05-02 23:01:00,49.5,34.9,30.23,North,0,0.0,0.0,57,0.00,,---,0.12,VWS V14.01,2013-05-03 04:01:00,
2013-05-02 23:06:00,49.5,34.9,30.23,North,0,0.0,0.0,57,0.00,,---,0.12,VWS V14.01,2013-05-03 04:06:00,
2013-05-02 23:11:00,49.5,34.9,30.23,North,0,0.0,0.0,57,0.00,,---,0.12,VWS V14.01,2013-05-03 04:11:00,
2013-05-02 23:16:00,49.5,34.5,30.23,North,0,0.0,0.0,56,0.00,,---,0.12,VWS V14.01,2013-05-03 04:16:00,
2013-05-02 23:21:00,49.5,34.5,30.23,North,0,0.0,0.0,56,0.00,,---,0.12,VWS V14.01,2013-05-03 04:21:00,
2013-05-02 23:26:00,49.5,34.5,30.23,North,0,0.0,0.0,56,0.00,,---,0.12,VWS V14.01,2013-05-03 04:26:00,
2013-05-02 23:32:00,49.4,34.4,30.24,North,0,0.0,0.0,56,0.00,,---,0.12,VWS V14.01,2013-05-03 04:32:00,
2013-05-02 23:37:00,49.2,34.2,30.24,North,0,0.0,0.0,56,0.00,,---,0.12,VWS V14.01,2013-05-03 04:37:00,
2013-05-02 23:42:00,49.2,34.6,30.24,North,0,0.0,0.0,57,0.00,,---,0.12,VWS V14.01,2013-05-03 04:42:00,
2013-05-02 23:47:00,49.1,34.5,30.24,North,0,0.0,0.0,57,0.00,,---,0.12,VWS V14.01,2013-05-03 04:47:00,
2013-05-02 23:52:00,48.9,34.3,30.24,North,0,0.0,0.0,57,0.00,,---,0.12,VWS V14.01,2013-05-03 04:52:00,
2013-05-02 23:57:00,48.9,34.8,30.24,North,0,0.0,0.0,58,0.00,,---,0.12,VWS V14.01,2013-05-03 04:57:00,